Location: Avully
(45.9633°N, 6.0228°E)
Time: 13:47:40
(UTC+00:00)

Cosmos 2322 Rocket - Pass Details

Date: 23 May 2024
Orbit: 832 x 850 km, 71.0° (Epoch: 18 June)

Event Time Altitude Azimuth Distance (km) Brightness Sun altitude
Rises 00:51:41 0° 338° (NNW) 3,400 6.1 -21.0°
Reaches altitude 10° 00:54:19 10° 347° (NNW) 2,464 5.4 -20.9°
Maximum altitude 00:59:33 37° 54° (NE) 1,279 3.6 -20.5°
Drops below altitude 10° 01:04:47 10° 122° (ESE) 2,463 4.5 -20.2°
Sets 01:07:24 0° 130° (SE) 3,397 5.2 -20.0°
